TimeAKST,TemperatureF,Dew PointF,Humidity,Sea Level PressureIn,VisibilityMPH,Wind Direction,Wind SpeedMPH,Gust SpeedMPH,PrecipitationIn,Events,Conditions,WindDirDegrees,DateUTC
12:02 AM,30.2,19.4,64,29.99,10.0,NE,27.6,43.7,0.00,Snow,Light Snow,40,2013-12-24 09:02:00
12:53 AM,28.9,17.1,61,30.06,10.0,NE,23.0,27.6,0.00,,Overcast,40,2013-12-24 09:53:00
1:53 AM,28.0,16.0,61,30.13,10.0,Variable,4.6,17.3,0.00,,Overcast,0,2013-12-24 10:53:00
2:34 AM,26.6,17.6,69,30.16,2.0,Variable,4.6,16.1,0.00,Snow,Light Snow,0,2013-12-24 11:34:00
2:51 AM,24.8,17.6,74,30.17,1.5,Calm,Calm,-,0.00,Snow,Light Snow,0,2013-12-24 11:51:00
2:53 AM,25.0,18.0,75,30.17,1.8,Calm,Calm,-,0.00,Snow,Light Snow,0,2013-12-24 11:53:00
2:58 AM,24.8,17.6,74,30.16,3.0,Variable,3.5,-,0.00,Snow,Light Snow,0,2013-12-24 11:58:00
3:17 AM,24.8,17.6,74,30.18,4.0,Calm,Calm,-,0.00,Snow,Light Snow,0,2013-12-24 12:17:00
3:53 AM,26.1,17.1,69,30.19,10.0,Calm,Calm,-,0.00,,Overcast,0,2013-12-24 12:53:00
4:53 AM,26.1,12.9,58,30.22,10.0,Variable,3.5,-,N/A,,Overcast,0,2013-12-24 13:53:00
5:53 AM,25.0,12.0,58,30.23,6.0,NE,19.6,24.2,0.00,Snow,Light Snow,40,2013-12-24 14:53:00
6:53 AM,24.1,12.9,62,30.25,5.0,NE,12.7,27.6,0.00,Snow,Light Snow,40,2013-12-24 15:53:00
7:46 AM,23.0,12.2,63,30.26,2.5,NE,16.1,25.3,0.00,Snow,Light Snow,50,2013-12-24 16:46:00
7:51 AM,23.0,12.2,63,30.26,3.0,NE,15.0,-,0.00,Snow,Light Snow,40,2013-12-24 16:51:00
7:53 AM,23.0,12.9,65,30.26,4.0,NE,17.3,-,0.00,Snow,Light Snow,50,2013-12-24 16:53:00
8:53 AM,24.1,10.9,57,30.26,8.0,NNE,17.3,27.6,0.00,Snow,Light Snow,30,2013-12-24 17:53:00
9:53 AM,24.1,12.0,60,30.26,10.0,Calm,Calm,-,0.00,,Overcast,0,2013-12-24 18:53:00
10:53 AM,24.1,12.9,62,30.25,7.0,North,4.6,17.3,0.00,Snow,Light Snow,10,2013-12-24 19:53:00
11:53 AM,24.1,12.0,60,30.23,10.0,NE,8.1,16.1,0.00,,Overcast,50,2013-12-24 20:53:00
12:46 PM,24.8,14.0,64,30.21,2.5,NE,10.4,-,0.00,Snow,Light Snow,40,2013-12-24 21:46:00
12:53 PM,23.0,14.0,68,30.21,2.5,NE,15.0,20.7,0.00,Snow,Light Snow,40,2013-12-24 21:53:00
1:08 PM,23.0,14.0,68,30.20,1.2,NE,11.5,-,0.00,Snow,Light Snow,40,2013-12-24 22:08:00
1:24 PM,21.2,14.0,74,30.18,0.8,NE,10.4,18.4,0.00,Snow,Light Snow,40,2013-12-24 22:24:00
1:53 PM,21.9,15.1,75,30.17,0.8,NE,10.4,19.6,0.01,Snow,Light Snow,50,2013-12-24 22:53:00
2:01 PM,21.2,15.8,80,30.16,0.8,NE,12.7,17.3,0.00,Snow,Light Snow,40,2013-12-24 23:01:00
2:10 PM,21.2,15.8,80,30.16,1.0,NE,11.5,-,0.00,Snow,Light Snow,50,2013-12-24 23:10:00
2:30 PM,21.2,15.8,80,30.15,1.5,NE,10.4,-,0.00,Snow,Light Snow,40,2013-12-24 23:30:00
2:46 PM,23.0,15.8,74,30.13,2.5,NNE,10.4,17.3,0.00,Snow,Light Snow,30,2013-12-24 23:46:00
2:51 PM,23.0,15.8,74,30.13,4.0,NE,8.1,17.3,0.00,Snow,Light Snow,40,2013-12-24 23:51:00
2:53 PM,23.0,16.0,74,30.14,4.0,NE,6.9,17.3,0.00,Snow,Light Snow,50,2013-12-24 23:53:00
3:11 PM,23.0,15.8,74,30.13,2.5,NNE,8.1,-,0.00,Snow,Light Snow,30,2013-12-25 00:11:00
3:41 PM,23.0,17.6,80,30.11,1.5,Calm,Calm,-,0.01,Snow,Light Snow,0,2013-12-25 00:41:00
3:51 PM,23.0,17.6,80,30.10,2.5,NNE,6.9,-,0.01,Snow,Light Snow,30,2013-12-25 00:51:00
3:53 PM,23.0,17.1,78,30.10,2.5,North,4.6,-,0.01,Snow,Light Snow,10,2013-12-25 00:53:00
4:01 PM,23.0,17.6,80,30.09,3.0,North,3.5,-,0.00,Snow,Light Snow,10,2013-12-25 01:01:00
4:15 PM,24.8,17.6,74,30.07,2.5,Variable,3.5,-,0.00,Snow,Light Snow,0,2013-12-25 01:15:00
4:37 PM,24.8,17.6,74,30.06,1.8,Calm,Calm,-,0.01,Snow,Light Snow,0,2013-12-25 01:37:00
4:51 PM,24.8,19.4,80,30.04,2.5,Calm,Calm,-,0.01,Snow,Light Snow,0,2013-12-25 01:51:00
4:53 PM,24.1,19.0,81,30.05,3.0,Calm,Calm,-,0.01,Snow,Light Snow,0,2013-12-25 01:53:00
5:19 PM,24.8,19.4,80,30.02,4.0,Calm,Calm,-,0.00,Snow,Light Snow,0,2013-12-25 02:19:00
5:53 PM,24.1,19.0,81,30.00,4.0,Calm,Calm,-,0.00,Snow,Light Snow,0,2013-12-25 02:53:00
6:30 PM,24.8,19.4,80,29.97,4.0,WNW,3.5,-,0.00,Snow,Light Snow,300,2013-12-25 03:30:00
6:44 PM,24.8,19.4,80,29.96,2.5,Calm,Calm,-,0.00,Snow,Light Snow,0,2013-12-25 03:44:00
6:51 PM,24.8,19.4,80,29.95,3.0,Calm,Calm,-,0.00,Snow,Light Snow,0,2013-12-25 03:51:00
6:53 PM,24.1,19.9,84,29.95,3.0,Calm,Calm,-,0.00,Snow,Light Snow,0,2013-12-25 03:53:00
7:11 PM,24.8,19.4,80,29.94,2.0,Calm,Calm,-,0.00,Snow,Light Snow,0,2013-12-25 04:11:00
7:19 PM,24.8,19.4,80,29.93,1.8,Calm,Calm,-,0.01,Snow,Light Snow,0,2013-12-25 04:19:00
7:32 PM,24.8,19.4,80,29.92,2.0,NE,9.2,-,0.01,Snow,Light Snow,40,2013-12-25 04:32:00
7:53 PM,24.1,18.0,77,29.91,3.0,NE,12.7,18.4,0.01,Snow,Light Snow,50,2013-12-25 04:53:00
8:05 PM,24.8,19.4,80,29.90,2.0,Variable,5.8,-,0.00,Snow,Light Snow,0,2013-12-25 05:05:00
8:23 PM,24.8,17.6,74,29.88,3.0,NE,12.7,20.7,0.00,Snow,Light Snow,40,2013-12-25 05:23:00
8:44 PM,24.8,17.6,74,29.87,2.5,NE,16.1,-,0.00,Snow,Light Snow,40,2013-12-25 05:44:00
8:53 PM,24.1,16.0,71,29.87,2.5,NE,13.8,-,0.00,Snow,Light Snow,50,2013-12-25 05:53:00
9:17 PM,24.8,15.8,69,29.85,3.0,NE,12.7,21.9,0.00,Snow,Light Snow,40,2013-12-25 06:17:00
9:27 PM,24.8,17.6,74,29.85,6.0,NNE,11.5,23.0,0.00,Snow,Light Snow,30,2013-12-25 06:27:00
9:53 PM,24.1,16.0,71,29.84,5.0,NNE,13.8,23.0,0.00,Snow,Light Snow,30,2013-12-25 06:53:00
10:53 PM,25.0,17.1,72,29.82,8.0,NE,8.1,19.6,0.00,Snow,Light Snow,40,2013-12-25 07:53:00
11:53 PM,25.0,18.0,75,29.81,10.0,Calm,Calm,-,0.00,,Overcast,0,2013-12-25 08:53:00